Regional Weather Roundup
Issued by NWS Bismarck, ND

Home | Current Version | Previous Version | Text Only | Print | Product List | Glossary On
Versions: 1 2 3 4 5 6 7 8 9 10 11 12 13 14 15 16 17 18 19 20 21 22 23 24 25 26 27 28 29 30 31 32 33 34 35 36 37 38 39 40 41 42 43 44 45 46 47 48 49 50
000
ASUS43 KBIS 250920
RWRBIS

NWR BROADCAST TEXT
NATIONAL WEATHER SERVICE BISMARCK ND
400 AM CDT SAT OCT 25 2014

NOTE: "FAIR" INDICATES FEW OR NO CLOUDS BELOW 12,000 FEET WITH NO
SIGNIFICANT WEATHER AND/OR OBSTRUCTIONS TO VISIBILITY.


CITY           SKY/WX    TMP DP  RH WIND       PRES   REMARKS
WILLISTON      CLOUDY    43  30  60 SE5       30.09R
MINOT          MOCLDY    45  29  53 W12       30.05R
MINOT AFB      MOCLDY    40  31  72 W10       30.05R
BISMARCK       MOCLDY    46  32  58 NW5       30.10R
DICKINSON      CLOUDY    46  32  58 W6        30.09F
GARRISON         N/A     41  31  67 W8        30.07R
HETTINGER ARPT MOCLDY    42  31  64 CALM      30.14R
JAMESTOWN      CLEAR     41  33  73 W9        30.05R
BEACH            N/A     41  32  70 CALM      30.12F
CARRINGTON     FAIR      37  32  81 W13       30.07R
CROSBY         FAIR      39  28  65 W8        30.08S
HARVEY         FAIR      37  30  75 SW10      30.06R
HAZEN          FAIR      39  30  70 W8        30.11R
LINTON         PTSUNNY   45  36  70 SW8       30.10R
MANDAN         CLOUDY    45  32  61 W7        30.10S
OAKES            N/A     46  36  66 W5        30.07R
RUGBY          FAIR      32  30  93 W8        30.04R
STANLEY        FAIR      37  32  81 NW9       30.08R
TIOGA          FAIR      32  32 100 W3        30.11S
$$

CITY           SKY/WX    TMP DP  RH WIND       PRES   REMARKS
GRAND FORKS    PTCLDY    44  34  67 W8        29.98R
GRAND FORKS AF PTCLDY    46  34  62 NW9       29.98R
DEVILS LAKE    PTCLDY    45  30  57 W12       30.01R
FARGO          PTCLDY    43  31  62 W9        30.01R
CANDO          FAIR      36  32  87 W12       30.02R
CAVALIER       FAIR      45  32  61 W10G16    29.95S
GRAFTON        FAIR      41  34  75 W9        29.96S
GWINNER        PTSUNNY   48  32  53 W8        30.06S
LANGDON        FAIR      36  28  75 W12       29.97R
ROLLA          FAIR      46  27  46 NW21      30.00R
WALHALLA       FAIR      45  32  61 W9        29.95R
$$

CITY           SKY/WX    TMP DP  RH WIND       PRES   REMARKS
ABERDEEN       CLOUDY    54  34  46 NW10      30.08R
MOBRIDGE       MOCLDY    51  39  63 N5        30.08S
BUFFALO          N/A     43  31  62 W3        30.08R
RAPID CITY     CLEAR     44  32  62 NW9       30.16R
GLASGOW        CLOUDY    44  31  60 S3        30.09S
SIDNEY         CLOUDY    45  34  65 CALM      30.13R
WOLF POINT     CLOUDY    41  34  76 SW6       30.10R
GLENDIVE       CLOUDY    43  34  70 W5        30.13S
MILES CITY     CLEAR     42  33  70 S8        30.12S
BAKER          PTCLDY    35  29  78 CALM      30.14R
$$

CITY           SKY/WX    TMP DP  RH WIND       PRES   REMARKS
BILLINGS       MOCLDY    42  33  70 N3        30.10S
GREAT FALLS    MOCLDY    44  40  85 SE7       30.03F
REGINA         CLEAR     30  27  86 W5        30.06R
ESTEVAN        PTCLDY    32  28  86 W8        30.07R
$$




USA.gov is the U.S. government's official web portal to all federal, state and local government web resources and services.